Bad Axe, MI

12:20 AM EDT on March 26, 2017 (GMT -0400)
Huron County Memorial

Weather History for KBAX - April, 2013

Change the Weather History Date:

Thursday, April 4, 2013

  Actual Average (KP58) Record (KP58)
Temperature  
Mean Temperature 40 °F -  
Max Temperature 54 °F 41 °F 57 °F (2011)
Min Temperature 27 °F 30 °F 23 °F (2007)
Degree Days  
Heating Degree Days 24    
Moisture  
Dew Point 23 °F    
Average Humidity 54    
Maximum Humidity 88    
Minimum Humidity 32    
Precipitation  
Precipitation 0.00 in - - ()
Sea Level Pressure  
Sea Level Pressure 30.09 in    
Wind  
Wind Speed 11 mph (SW)    
Max Wind Speed 21 mph    
Max Gust Speed 30 mph    
Visibility 10 miles    
Events      
Averages and records for this station are not official NWS values.
T = Trace of Precipitation, MM = Missing Value Source: NWS Daily Summary

Daily Weather History Graph

Daily Weather History Graph

Search for Another Location

Airport or City:

Trip Planner

Search our weather history database for the weather conditions in past years. The results will help you decide how hot, cold, wet, or windy it might be!

Date:

Astronomy

Apr. 04, 2013 Rise Set
Actual Time 7:07 AM EDT 8:02 PM EDT
Civil Twilight 6:38 AM EDT 8:32 PM EDT
Nautical Twilight 6:03 AM EDT 9:06 PM EDT
Astronomical Twilight 5:27 AM EDT 9:43 PM EDT
Moon 3:44 AM EDT (4/4) 2:09 PM EDT (4/4)
Length of Visible Light 13h 53m
Length of Day
12h 55m
Waning Crescent, 34% of the Moon is Illuminated
Apr 4
Waning Crescent
Apr 10
New
Apr 18
First Quarter
Apr 25
Full
May 2
Last Quarter

Hourly Weather History & Observations

Time (EDT) Temp. Windchill Dew Point Humidity Pressure Visibility Wind Dir Wind Speed Gust Speed Precip Events Conditions
12:13 AM 28.0 °F 21.7 °F 20.1 °F 72% 30.32 in 10.0 mi South 5.8 mph - N/A   Clear
12:34 AM 27.9 °F 21.5 °F 20.7 °F 74% 30.32 in 10.0 mi South 5.8 mph - N/A   Clear
12:53 AM 27.5 °F 21.1 °F 20.3 °F 74% 30.31 in 10.0 mi South 5.8 mph - N/A   Clear
1:13 AM 27.9 °F 19.8 °F 20.3 °F 73% 30.30 in 10.0 mi South 8.1 mph - N/A   Clear
1:34 AM 29.7 °F 22.0 °F 20.1 °F 68% 30.30 in 10.0 mi South 8.1 mph - N/A   Clear
2:13 AM 29.8 °F 22.2 °F 19.4 °F 65% 30.30 in 10.0 mi SSW 8.1 mph - N/A   Clear
2:34 AM 29.3 °F 21.5 °F 19.6 °F 67% 30.29 in 10.0 mi SSW 8.1 mph - N/A   Clear
2:53 AM 29.1 °F 21.3 °F 19.4 °F 67% 30.29 in 10.0 mi SSW 8.1 mph - N/A   Clear
3:13 AM 29.3 °F 20.8 °F 19.4 °F 67% 30.28 in 10.0 mi SSW 9.2 mph - N/A   Clear
3:34 AM 29.3 °F 20.2 °F 19.4 °F 67% 30.26 in 10.0 mi SSW 10.4 mph - N/A   Clear
3:53 AM 29.1 °F 19.4 °F 19.9 °F 69% 30.26 in 10.0 mi SSW 11.5 mph - N/A   Clear
4:13 AM 29.3 °F 20.2 °F 20.1 °F 69% 30.25 in 10.0 mi SSW 10.4 mph - N/A   Clear
4:34 AM 29.1 °F 20.0 °F 20.3 °F 70% 30.25 in 10.0 mi SSW 10.4 mph - N/A   Clear
4:53 AM 29.1 °F 20.6 °F 20.7 °F 71% 30.24 in 10.0 mi SSW 9.2 mph - N/A   Clear
5:13 AM 28.9 °F 19.8 °F 20.5 °F 71% 30.24 in 10.0 mi SSW 10.4 mph - N/A   Clear
5:34 AM 28.9 °F 20.4 °F 20.3 °F 70% 30.24 in 10.0 mi SSW 9.2 mph - N/A   Clear
5:53 AM 28.4 °F 19.7 °F 20.3 °F 72% 30.24 in 10.0 mi SSW 9.2 mph - N/A   Clear
6:14 AM 28.4 °F 19.7 °F 20.3 °F 72% 30.24 in 10.0 mi SSW 9.2 mph - N/A   Clear
6:34 AM 29.1 °F 19.4 °F 19.9 °F 69% 30.24 in 10.0 mi SSW 11.5 mph - N/A   Clear
6:53 AM 29.1 °F 19.4 °F 19.2 °F 67% 30.23 in 10.0 mi SSW 11.5 mph 16.1 mph N/A   Clear
7:14 AM 29.1 °F 19.4 °F 18.9 °F 66% 30.23 in 10.0 mi SSW 11.5 mph - N/A   Clear
7:34 AM 29.3 °F 20.2 °F 18.5 °F 64% 30.22 in 10.0 mi SSW 10.4 mph - N/A   Clear
7:53 AM 30.2 °F 21.3 °F 18.9 °F 63% 30.21 in 10.0 mi SSW 10.4 mph 16.1 mph N/A   Clear
8:14 AM 31.1 °F 21.4 °F 18.9 °F 61% 30.20 in 10.0 mi SSW 12.7 mph - N/A   Clear
8:33 AM 32.2 °F 23.2 °F 19.0 °F 58% 30.20 in 10.0 mi SSW 11.5 mph - N/A   Clear
8:53 AM 33.8 °F 24.3 °F 19.2 °F 55% 30.19 in 10.0 mi SSW 13.8 mph 17.3 mph N/A   Clear
9:14 AM 35.4 °F 26.4 °F 18.5 °F 50% 30.18 in 10.0 mi SSW 13.8 mph 19.6 mph N/A   Clear
9:33 AM 36.7 °F 28.4 °F 18.5 °F 48% 30.17 in 10.0 mi SW 12.7 mph 17.3 mph N/A   Clear
9:53 AM 37.6 °F 29.6 °F 18.0 °F 45% 30.16 in 10.0 mi SSW 12.7 mph - N/A   Clear
10:14 AM 39.9 °F 31.8 °F 18.9 °F 43% 30.15 in 10.0 mi SW 15.0 mph 18.4 mph N/A   Clear
10:33 AM 41.7 °F 33.7 °F 18.5 °F 39% 30.14 in 10.0 mi SW 16.1 mph 20.7 mph N/A   Clear
10:53 AM 43.0 °F 35.7 °F 18.5 °F 37% 30.13 in 10.0 mi SW 15.0 mph 19.6 mph N/A   Clear
11:14 AM 43.7 °F 36.9 °F 19.2 °F 38% 30.11 in 10.0 mi WSW 13.8 mph 24.2 mph N/A   Clear
11:33 AM 45.0 °F 37.6 °F 20.1 °F 37% 30.10 in 10.0 mi SW 17.3 mph 23.0 mph N/A   Clear
11:53 AM 45.9 °F 38.5 °F 20.7 °F 37% 30.09 in 10.0 mi WSW 18.4 mph 25.3 mph N/A   Clear
12:33 PM 47.5 °F - 22.5 °F 37% 30.07 in 10.0 mi SW 19.6 mph 24.2 mph N/A   Clear
12:54 PM 48.2 °F - 22.3 °F 36% 30.05 in 10.0 mi SW 19.6 mph 26.5 mph N/A   Clear
1:14 PM 49.1 °F - 22.5 °F 35% 30.04 in 10.0 mi SW 20.7 mph 27.6 mph N/A   Clear
1:33 PM 49.5 °F - 22.6 °F 35% 30.03 in 10.0 mi WSW 17.3 mph 24.2 mph N/A   Clear
1:54 PM 50.2 °F - 22.8 °F 34% 30.02 in 10.0 mi SW 17.3 mph 29.9 mph N/A   Clear
2:14 PM 51.1 °F - 24.4 °F 35% 30.01 in 10.0 mi SW 19.6 mph 26.5 mph N/A   Clear
2:33 PM 51.3 °F - 24.1 °F 35% 30.00 in 10.0 mi SW 19.6 mph - N/A   Clear
3:14 PM 52.5 °F - 24.4 °F 34% 29.97 in 10.0 mi SW 16.1 mph 25.3 mph N/A   Clear
3:33 PM 52.9 °F - 24.1 °F 33% 29.96 in 10.0 mi WSW 18.4 mph 26.5 mph N/A   Clear
3:54 PM 53.2 °F - 25.3 °F 34% 29.95 in 10.0 mi SW 13.8 mph 24.2 mph N/A   Clear
4:14 PM 54.1 °F - 25.2 °F 33% 29.94 in 10.0 mi SW 13.8 mph 21.9 mph N/A   Clear
4:33 PM 54.5 °F - 25.3 °F 32% 29.93 in 10.0 mi WSW 18.4 mph 25.3 mph N/A   Clear
4:54 PM 54.1 °F - 25.5 °F 33% 29.93 in 10.0 mi WSW 17.3 mph 23.0 mph N/A   Clear
5:14 PM 54.1 °F - 25.9 °F 34% 29.92 in 10.0 mi WSW 17.3 mph 21.9 mph N/A   Clear
5:33 PM 54.0 °F - 25.9 °F 34% 29.92 in 10.0 mi WSW 18.4 mph 26.5 mph N/A   Clear
5:54 PM 53.6 °F - 25.7 °F 34% 29.92 in 10.0 mi WSW 16.1 mph 23.0 mph N/A   Clear
6:14 PM 53.2 °F - 25.7 °F 34% 29.91 in 10.0 mi WSW 17.3 mph 23.0 mph N/A   Clear
6:34 PM 52.7 °F - 25.9 °F 35% 29.90 in 10.0 mi SW 15.0 mph 19.6 mph N/A   Clear
6:54 PM 52.2 °F - 26.4 °F 37% 29.90 in 10.0 mi SW 15.0 mph 24.2 mph N/A   Scattered Clouds
7:14 PM 51.8 °F - 26.1 °F 37% 29.90 in 10.0 mi SW 11.5 mph - N/A   Mostly Cloudy
7:34 PM 51.1 °F - 26.4 °F 38% 29.91 in 10.0 mi WSW 11.5 mph - N/A   Mostly Cloudy
7:54 PM 50.2 °F - 27.1 °F 41% 29.91 in 10.0 mi WSW 10.4 mph 17.3 mph N/A   Overcast
8:13 PM 50.0 °F - 27.3 °F 41% 29.92 in 10.0 mi WSW 11.5 mph 19.6 mph N/A   Overcast
8:34 PM 50.0 °F - 27.3 °F 41% 29.92 in 10.0 mi WSW 15.0 mph 21.9 mph N/A   Overcast
8:54 PM 48.9 °F - 28.4 °F 45% 29.92 in 10.0 mi West 9.2 mph - N/A   Overcast
9:13 PM 49.1 °F - 27.1 °F 43% 29.93 in 10.0 mi West 16.1 mph 20.7 mph N/A   Overcast
9:34 PM 40.5 °F 32.8 °F 32.0 °F 72% 29.96 in 10.0 mi NNE 13.8 mph 20.7 mph N/A   Overcast
9:54 PM 38.3 °F 31.9 °F 32.9 °F 81% 29.97 in 10.0 mi NNE 9.2 mph - N/A   Overcast
10:13 PM 37.8 °F 32.5 °F 33.3 °F 84% 29.96 in 10.0 mi NE 6.9 mph - N/A   Overcast
10:34 PM 37.6 °F 35.1 °F 33.8 °F 86% 29.96 in 10.0 mi NNE 3.5 mph - N/A   Overcast
10:54 PM 37.6 °F 35.1 °F 33.8 °F 86% 29.96 in 10.0 mi NNE 3.5 mph - N/A   Overcast
11:13 PM 37.6 °F - 33.8 °F 86% 29.96 in 10.0 mi Calm Calm - N/A   Overcast
11:34 PM 37.4 °F - 33.8 °F 87% 29.96 in 10.0 mi Calm Calm - N/A   Overcast
11:53 PM 37.0 °F 34.5 °F 33.8 °F 88% 29.96 in 10.0 mi NNE 3.5 mph - N/A   Overcast